RH
7 8 8 10 14 22 33 44 50 57 60 70 84 79 93 98 95 83 56 73 86 91 91 76 54 10 6 6 12 81 65 44 98 95 50 92 97 87 98 46 81 92 85 78
7 7 8 9 10 10 9 9 22 44 44 58 77 74 93 99 90 71 69 95 96 97 88 85 71 63 71 11 78 59 63 87 97 61 97 84 96 94 93 78 85 82 92 80
9 10 11 11 12 12 13 13 11 19 46 48 58 64 82 99 90 78 89 96 96 95 96 94 82 92 97 37 99 98 98 96 96 96 77 93 96 95 89 61 97 55 83 91
11 13 15 19 22 22 25 23 14 15 38 51 45 55 91 88 95 85 87 94 97 63 94 97 90 70 100 68 95 96 96 96 96 95 94 96 94 96 93 67 96 94 99 100
12 20 31 40 47 39 38 31 19 17 24 38 40 64 94 88 85 73 98 82 96 99 83 96 90 76 79 83 98 95 98 93 96 96 97 93 80 91 96 93 93 96 86 95
11 19 34 43 66 75 37 28 22 22 32 40 45 82 100 97 98 94 97 89 98 96 80 96 100 96 83 66 94 99 95 99 98 95 97 93 98 79 66 95 96 96 96 97
10 21 37 46 58 49 43 30 49 35 78 48 93 98 100 97 98 99 83 96 96 96 96 97 98 79 97 96 97 100 80 75 91 95 92 92 94 96 91 91 93 95 95 97
8 18 41 80 94 100 100 46 34 99 90 53 98 100 100 98 97 100 98 87 96 97 97 96 97 100 96 95 94 92 88 99 79 70 81 87 92 90 83 92 91 94 86 83
8 14 50 80 94 91 68 51 97 99 75 53 77 100 86 98 92 98 99 98 97 97 97 95 98 96 96 89 83 82 81 75 93 68 61 73 69 60 66 87 96 94 89 97
8 9 24 49 62 82 81 74 60 57 51 39 43 80 81 80 98 93 99 96 98 96 97 98 98 99 85 81 77 77 75 82 97 88 98 90 98 81 90 94 95 97 86 96
8 8 9 18 36 46 52 56 61 57 51 42 33 39 69 60 92 96 94 100 96 98 94 96 97 96 97 98 98 99 96 95 96 97 96 97 97 97 91 93 93 93 97 97
8 8 8 8 8 20 37 41 44 49 48 46 43 28 29 42 39 46 93 100 99 89 97 97 92 89 90 94 96 98 94 98 95 96 96 96 94 95 96 96 95 97 98 97
9 8 8 9 9 8 10 17 28 43 49 44 36 32 30 27 28 31 40 94 63 100 100 95 88 79 79 72 72 84 89 95 95 95 93 86 96 96 96 97 96 97 97 96
8 8 8 9 9 9 9 8 8 10 18 17 23 27 27 24 22 26 25 51 33 26 77 92 97 85 72 72 66 59 65 78 77 88 96 100 96 94 96 97 98 97 97 96
8 9 9 10 10 10 10 9 9 8 8 7 7 7 11 16 19 18 19 22 25 22 23 30 80 82 66 54 70 59 72 64 65 67 62 76 95 92 96 96 97 97 96 96
7 9 10 10 11 11 11 12 11 10 9 8 7 7 6 6 8 14 20 25 28 27 20 20 22 44 60 63 65 77 68 63 55 56 61 65 86 93 79 91 97 95 97 98
6 8 9 10 11 11 11 12 12 12 11 10 8 7 6 6 6 6 8 14 19 20 21 20 17 19 30 54 54 55 55 56 57 54 51 49 53 62 90 91 91 94 95 96
7 7 8 9 10 11 11 12 12 12 12 11 10 8 8 7 6 6 5 4 5 8 13 19 23 20 18 21 38 47 42 40 42 45 52 52 54 64 76 62 74 87 86 94
9 7 8 9 9 10 11 12 12 11 10 12 11 10 9 9 8 8 8 7 5 5 4 5 8 16 22 20 17 19 27 36 38 36 38 46 53 58 59 64 72 79 71 65
10 9 8 8 9 10 10 11 13 12 11 10 9 10 10 10 9 9 10 10 9 8 8 7 5 4 4 9 13 14 14 14 14 20 26 32 43 48 60 70 75 74 75 80
11 11 10 8 8 9 10 11 12 13 12 10 9 10 10 11 10 10 10 9 11 11 11 10 8 7 6 5 5 4 4 4 5 6 9 12 14 17 24 33 43 52 67 79
11 12 12 12 11 9 8 10 11 12 12 12 10 9 10 9 10 9 10 10 10 10 10 13 13 12 11 10 10 10 8 7 7 7 7 7 7 8 15 24 29 38 38 45
16 14 13 13 13 12 10 9 10 12 12 13 12 11 11 9 9 10 11 11 10 10 10 11 10 11 13 15 14 12 12 14 13 11 11 11 9 8 10 19 28 32 34 42
20 16 14 13 13 14 15 13 10 10 12 13 14 14 12 10 9 9 10 10 11 11 12 12 12 12 13 14 14 16 16 17 17 17 16 15 13 12 10 11 21 31 34 36
27 22 19 17 15 16 15 16 16 12 11 13 14 16 16 15 13 12 11 11 11 13 13 14 15 15 15 16 19 21 21 21 22 22 21 20 18 16 15 14 15 16 18 30
44 29 23 24 20 16 17 18 17 18 14 13 15 16 18 18 17 17 16 14 12 12 14 16 18 19 20 20 24 27 29 30 29 27 26 24 22 21 20 21 24 26 25 30
Wind_Speed
11 16 18 21 28 31 29 29 24 27 23 18 19 18 14 22 22 20 18 20 23 26 25 22 38 60 81 81 71 55 50 56 60 54 65 57 58 62 55 51 55 53 53 47
12 17 21 24 27 29 29 30 26 21 24 18 19 17 17 22 21 11 16 11 7 13 16 19 30 44 62 75 64 55 54 50 70 70 46 60 60 51 63 53 51 55 52 51
19 24 26 30 30 31 31 29 28 21 23 21 16 14 14 16 11 8 2 3 2 3 4 3 12 43 49 69 62 59 54 55 49 45 45 45 53 55 57 57 55 59 54 54
27 29 30 30 31 30 28 30 23 21 20 20 15 13 11 7 5 4 7 9 6 6 5 8 13 35 63 65 74 63 45 39 53 50 58 52 57 48 48 54 57 54 60 56
35 36 30 28 24 22 21 19 17 18 16 16 16 15 9 9 5 10 3 9 6 15 11 17 12 27 55 64 68 60 47 42 48 50 52 56 59 50 43 53 59 66 69 64
44 39 26 18 11 2 4 12 16 15 17 19 18 16 11 14 5 12 6 18 14 21 10 11 17 21 39 54 44 26 32 38 50 44 53 53 50 48 57 56 46 51 65 60
44 39 28 22 19 16 13 9 15 20 19 17 18 15 11 3 11 8 3 7 7 17 10 13 12 31 28 42 34 23 14 30 47 48 40 40 48 54 50 58 62 54 53 58
46 38 28 31 28 23 16 15 22 25 18 19 17 9 9 8 15 12 6 13 8 13 10 14 15 23 25 22 25 24 20 23 22 34 35 37 40 43 40 46 53 55 51 55
49 42 22 26 27 24 22 18 23 13 10 15 13 7 6 13 7 10 9 11 14 15 17 13 10 16 15 14 16 20 24 29 25 26 29 33 40 44 47 40 39 35 42 53
50 47 35 18 22 26 24 24 17 12 3 8 10 8 2 5 9 18 12 7 5 3 17 20 16 16 16 24 17 12 20 24 26 30 29 34 33 27 37 42 33 38 37 43
48 51 50 42 20 12 15 16 14 11 14 6 9 9 9 4 5 15 16 17 8 7 6 9 12 15 19 18 17 15 14 20 26 29 36 37 36 37 35 37 31 28 42 45
43 48 51 50 47 33 22 18 14 13 12 10 8 3 10 11 8 7 12 13 4 7 10 5 12 19 14 8 14 12 10 9 18 23 33 38 39 32 29 29 35 36 39 42
38 40 44 47 47 48 37 27 19 13 8 7 6 7 6 1 10 11 9 10 8 10 7 9 8 10 11 12 13 13 11 8 10 12 18 30 35 32 34 29 29 29 39 33
33 37 38 42 44 45 45 46 41 29 19 14 2 2 5 6 7 8 15 17 15 8 10 7 7 11 13 11 12 19 19 16 13 9 9 18 20 19 23 27 32 30 29 34
28 32 35 38 40 39 41 42 43 44 40 36 30 15 4 6 12 15 15 13 19 16 15 13 16 13 13 14 15 16 18 19 16 16 18 25 25 19 18 22 29 29 34 31
22 25 28 32 35 37 37 37 37 39 39 42 41 38 33 22 6 8 15 14 12 12 17 21 20 22 21 21 18 19 23 24 24 24 23 24 24 28 29 27 24 26 34 30
15 17 21 24 27 30 34 35 35 34 35 36 37 41 41 37 34 24 10 5 17 18 18 20 26 27 27 30 29 29 29 28 29 30 30 32 33 32 34 36 34 34 32 33
8 9 13 17 20 23 25 29 32 32 33 33 32 33 37 40 43 40 33 25 12 4 13 18 21 26 30 30 32 34 35 36 38 37 36 36 38 38 37 40 45 42 43 47
7 5 5 9 14 16 18 20 23 28 29 29 29 30 31 32 34 38 39 38 36 31 20 7 7 18 23 27 33 34 36 37 39 39 40 41 42 42 44 45 47 47 47 49
8 8 6 4 7 10 12 15 17 20 23 24 26 27 27 26 30 31 32 33 34 34 36 37 29 20 6 10 19 25 31 37 40 42 43 46 46 48 49 52 53 55 54 52
11 10 10 8 7 6 6 8 12 13 16 19 21 22 22 23 25 26 27 27 26 27 27 28 30 30 27 24 19 11 3 7 18 31 40 42 44 50 51 53 51 55 56 55
15 14 13 12 11 10 8 5 5 7 10 12 14 16 18 20 21 21 21 23 23 23 23 22 21 20 19 20 20 20 16 10 9 9 11 19 23 31 44 48 54 51 52 51
20 18 17 15 15 14 12 11 8 5 5 6 7 10 12 14 15 17 18 18 18 19 20 21 21 20 18 16 12 7 7 10 11 10 11 13 19 28 40 48 50 50 51 51
24 22 21 20 19 16 17 14 14 12 10 7 5 4 6 8 9 11 14 14 15 17 19 20 20 20 21 19 16 16 15 13 11 11 14 18 24 30 41 48 51 54 55 55
29 28 27 25 26 21 21 19 17 17 16 14 12 10 7 7 8 9 10 12 13 14 16 18 19 20 21 21 21 22 21 21 20 21 20 19 24 32 39 47 50 49 49 53
31 35 33 28 30 26 25 23 23 20 19 19 17 16 14 12 11 11 11 12 13 15 16 18 20 20 21 24 24 23 23 22 20 23 25 31 38 41 44 51 54 51 48 50
Wind_Direction
286 277 277 275 265 264 262 261 255 247 255 262 281 306 309 305 304 293 284 263 255 243 236 243 226 213 213 213 213 206 208 214 238 227 236 220 240 229 223 230 232 231 232 234
304 298 293 282 276 272 266 264 261 244 244 244 274 288 303 313 312 294 283 290 287 251 237 266 217 210 203 206 197 200 204 212 217 233 234 241 223 225 224 225 232 234 237 235
315 302 295 291 285 277 277 264 259 243 240 237 252 277 288 281 305 296 346 52 6 84 341 216 254 204 191 191 189 187 188 201 210 213 233 226 217 224 222 224 223 235 234 235
328 317 310 299 286 276 268 263 248 243 225 231 237 253 272 272 266 201 137 67 137 8 41 178 241 204 188 193 193 193 203 221 206 225 210 212 219 223 223 227 231 230 230 233
340 339 330 314 303 285 269 255 229 224 207 205 211 231 257 177 221 169 173 152 168 102 87 137 194 184 187 197 202 206 214 226 197 200 208 216 228 226 223 235 239 233 233 235
355 353 353 355 357 359 209 193 192 185 175 186 194 210 222 217 175 147 41 141 134 138 126 148 144 202 198 197 188 221 228 227 225 214 215 215 223 223 227 232 233 224 231 232
10 13 28 42 53 66 74 130 145 149 161 183 185 208 195 185 143 112 178 139 139 149 132 140 147 190 205 205 207 213 224 235 230 226 218 222 228 227 231 233 244 251 250 237
25 31 62 72 64 58 72 105 134 136 167 176 186 189 165 169 159 148 114 181 198 135 166 163 161 144 165 183 195 219 237 230 219 224 221 226 228 233 237 243 246 248 250 254
34 40 58 65 59 63 69 96 122 116 159 183 185 191 166 186 211 187 136 177 186 168 171 177 197 199 203 191 207 215 220 216 221 201 215 220 227 233 235 238 229 235 241 237
40 41 44 53 60 64 72 74 88 82 82 192 198 196 212 211 176 195 167 168 94 219 130 170 169 151 192 206 218 208 215 208 203 205 210 206 209 222 225 224 243 246 247 242
42 42 47 47 49 24 52 62 63 41 64 101 211 224 241 237 218 175 195 230 240 195 233 216 161 131 136 157 164 169 193 207 200 203 203 207 208 207 232 241 230 247 243 243
44 45 47 49 48 45 60 57 52 55 66 70 73 152 278 265 254 252 247 207 244 266 234 215 240 247 260 175 162 163 175 161 201 207 213 212 218 232 230 236 239 232 230 228
45 45 47 49 50 52 48 37 36 36 50 56 79 87 93 318 274 267 273 248 286 162 204 211 209 207 214 238 246 257 210 180 192 187 211 222 226 227 218 221 228 227 224 240
44 44 42 44 47 51 55 53 51 49 47 42 28 201 193 189 227 260 247 245 265 266 249 222 212 211 217 219 227 250 266 264 283 250 227 201 200 212 211 220 224 225 234 232
43 46 44 44 44 49 53 54 56 54 50 50 51 56 57 209 205 219 235 242 244 244 237 232 234 240 230 231 234 240 242 257 269 271 269 266 255 243 238 229 219 222 217 229
44 46 49 47 46 43 45 47 52 58 57 55 51 48 44 48 54 227 225 228 238 242 232 227 229 231 236 241 242 242 243 247 250 257 255 258 259 230 241 249 225 229 229 234
45 44 49 51 48 46 46 44 43 47 50 57 60 59 56 49 44 36 19 247 234 235 239 240 233 231 230 229 234 242 250 252 255 255 253 255 256 252 248 241 244 238 242 244
23 48 43 49 49 47 49 47 42 42 42 47 56 64 64 61 61 58 54 53 57 218 235 237 239 238 239 240 239 237 238 246 253 256 258 259 261 260 253 254 258 262 260 259
344 0 31 37 43 47 48 52 52 46 41 42 41 50 56 62 63 61 64 62 58 58 58 55 249 247 248 248 247 247 249 248 247 249 254 259 261 261 262 261 260 253 250 254
306 316 321 350 20 35 42 50 54 55 50 39 41 44 45 49 55 57 62 64 66 62 59 57 60 60 48 258 255 258 257 257 257 255 254 255 258 260 261 262 261 261 262 257
281 289 297 298 307 332 15 36 51 55 55 45 36 39 43 42 46 48 49 53 61 66 71 65 65 67 67 69 70 67 22 278 265 264 265 266 266 265 266 266 267 267 266 266
266 271 279 286 290 287 288 308 6 31 45 48 37 28 32 36 42 49 49 47 46 49 52 59 67 65 59 57 64 60 58 40 23 0 323 291 283 276 270 270 272 273 271 269
269 266 265 271 275 283 280 280 284 303 347 22 32 23 16 22 31 35 35 36 41 43 41 45 44 42 38 41 53 58 38 23 22 5 342 323 299 289 282 275 272 273 272 272
266 264 262 262 264 268 273 274 275 274 281 295 320 345 349 350 2 12 15 20 28 25 28 27 27 25 25 23 16 19 13 4 348 324 311 302 296 289 285 284 279 274 272 272
269 264 262 261 262 260 264 265 268 267 269 275 281 293 298 306 317 328 335 343 352 358 0 2 3 2 3 2 2 2 2 353 345 340 329 305 283 280 284 287 291 288 281 274
268 268 264 259 264 260 261 262 260 261 262 267 272 277 285 290 294 300 309 315 321 327 332 336 342 346 346 345 347 344 347 340 324 301 299 285 284 286 283 284 289 290 283 277